Hourly Data Report for August 15, 2000

SHERBROOKE A
QUEBEC

45°26'00.000" N
71°41'00.000" W
241.40 m
7028124
71610
YSC

Download Data

Hourly Data (August 2000)
Hourly Data Report for August 15, 2000
TIME
LST
Temp Definition
°C
Dew Point Definition
°C
Rel Hum Definition
%
Precip. Amount Definition
mm

Wind Dir Definition
10's deg

Wind Spd Definition
km/h
Visibility Definition
km
Stn Press Definition
kPa
Hmdx Definition


Wind Chill Definition


Weather Definition


00:00 15.2 14.9 98     0 0.2 98.92      
01:00 13.8 13.8 100   2 6 0.2 98.88      
02:00 14.0 13.9 99   13 4 0.2 98.92      
03:00 14.8 14.7 99   10 4 0.3 98.95      
04:00 14.8 14.6 99   8 6 6.4 98.92      
05:00 14.8 14.6 99   35 4 12.9 98.98      
06:00 15.1 14.9 99   9 4 15.0 98.98      
07:00 17.2 16.0 93   9 7 24.1 98.98     Mainly Clear
08:00 18.4 16.5 89   27 6 24.1 99.02     Mostly Cloudy
09:00 20.9 17.2 79     0 24.1 98.95 26   Mostly Cloudy
10:00 21.1 16.1 73   21 7 24.1 98.92 26   Mostly Cloudy
11:00 21.5 16.5 73   18 7 24.1 98.88 26   Mostly Cloudy
12:00 23.0 16.5 67   22 6 24.1 98.79 28   Mainly Clear
13:00 24.4 17.4 65   19 7 24.1 98.72 30   Mostly Cloudy
14:00 24.7 16.8 61   23 17 24.1 98.65 30   Mostly Cloudy
15:00 24.3 16.8 63   30 7 24.1 98.65 29   Mostly Cloudy
16:00 25.4 16.4 57   17 9 24.1 98.55 30   Mainly Clear
17:00 25.0 16.1 58   21 7 15.0 98.49 30    
18:00 23.6 16.9 66   19 6 15.0 98.45 29    
19:00 20.4 17.2 82   19 4 15.0 98.42 26    
20:00 18.9 17.0 89   15 7 15.0 98.45      
21:00 19.2 16.3 83   16 9 15.0 98.42      
22:00 18.3 15.8 85   14 7 15.0 98.36      
23:00 17.7 15.7 88   11 11 15.0 98.29      

Notes on Data Quality.

Legend

  • E = Estimated
  • M = Missing
  • NA = Not Available*
  • [empty] = Indicates an unobserved value
Date modified: